TimeEST,TemperatureF,Dew PointF,Humidity,Sea Level PressureIn,VisibilityMPH,Wind Direction,Wind SpeedMPH,Gust SpeedMPH,PrecipitationIn,Events,Conditions,WindDirDegrees,DateUTC
12:14 AM,29.8,21.0,70,30.16,10.0,Calm,Calm,-,N/A,,Clear,0,2013-01-16 05:14:00
12:34 AM,28.2,20.8,74,30.15,10.0,Calm,Calm,-,N/A,,Clear,0,2013-01-16 05:34:00
1:14 AM,28.4,21.9,77,30.12,10.0,Calm,Calm,-,N/A,,Clear,0,2013-01-16 06:14:00
1:34 AM,27.5,22.1,80,30.11,10.0,Calm,Calm,-,N/A,,Clear,0,2013-01-16 06:34:00
1:54 AM,27.3,22.1,81,30.11,10.0,Calm,Calm,-,N/A,,Clear,0,2013-01-16 06:54:00
2:14 AM,28.0,22.6,80,30.10,10.0,Calm,Calm,-,N/A,,Clear,0,2013-01-16 07:14:00
2:35 AM,27.3,22.5,82,30.09,10.0,Calm,Calm,-,N/A,,Clear,0,2013-01-16 07:35:00
2:54 AM,26.6,22.1,83,30.09,10.0,Calm,Calm,-,N/A,,Clear,0,2013-01-16 07:54:00
3:14 AM,26.2,21.7,83,30.09,10.0,Calm,Calm,-,N/A,,Clear,0,2013-01-16 08:14:00
3:35 AM,25.7,22.1,86,30.08,10.0,Calm,Calm,-,N/A,,Scattered Clouds,0,2013-01-16 08:35:00
3:54 AM,26.6,22.3,84,30.07,10.0,Calm,Calm,-,N/A,,Scattered Clouds,0,2013-01-16 08:54:00
4:15 AM,26.1,21.6,83,30.06,10.0,Calm,Calm,-,N/A,,Clear,0,2013-01-16 09:15:00
4:34 AM,25.7,22.1,86,30.05,10.0,Calm,Calm,-,N/A,,Mostly Cloudy,0,2013-01-16 09:34:00
4:54 AM,26.6,22.5,84,30.05,10.0,Calm,Calm,-,N/A,,Mostly Cloudy,0,2013-01-16 09:54:00
5:15 AM,27.1,23.2,85,30.05,10.0,West,3.5,-,N/A,,Overcast,270,2013-01-16 10:15:00
5:34 AM,27.5,23.0,83,30.04,10.0,WNW,3.5,-,N/A,,Mostly Cloudy,290,2013-01-16 10:34:00
5:55 AM,27.3,21.9,80,30.03,10.0,NW,4.6,-,N/A,,Clear,310,2013-01-16 10:55:00
6:14 AM,27.5,21.6,78,30.02,10.0,Calm,Calm,-,N/A,,Clear,0,2013-01-16 11:14:00
6:35 AM,27.7,21.6,78,30.00,10.0,Calm,Calm,-,N/A,,Scattered Clouds,0,2013-01-16 11:35:00
7:35 AM,27.3,21.7,80,29.99,10.0,Calm,Calm,-,N/A,,Overcast,0,2013-01-16 12:35:00
7:54 AM,28.0,22.3,79,29.98,10.0,Calm,Calm,-,N/A,,Mostly Cloudy,0,2013-01-16 12:54:00
8:14 AM,27.5,22.1,80,29.98,10.0,Calm,Calm,-,N/A,,Scattered Clouds,0,2013-01-16 13:14:00
8:35 AM,27.5,21.9,80,29.97,10.0,Calm,Calm,-,N/A,,Scattered Clouds,0,2013-01-16 13:35:00
8:54 AM,27.7,21.9,79,29.97,10.0,West,3.5,-,N/A,,Scattered Clouds,270,2013-01-16 13:54:00
9:14 AM,28.4,21.2,74,29.97,10.0,SW,4.6,-,N/A,,Clear,230,2013-01-16 14:14:00
9:35 AM,29.1,20.3,70,29.96,10.0,SW,4.6,-,N/A,,Clear,220,2013-01-16 14:35:00
9:54 AM,30.2,20.5,67,29.95,10.0,SW,5.8,-,N/A,,Clear,220,2013-01-16 14:54:00
10:15 AM,31.5,21.4,66,29.95,10.0,WSW,5.8,-,N/A,,Clear,240,2013-01-16 15:15:00
10:35 AM,32.4,23.0,68,29.95,10.0,SW,9.2,-,N/A,,Clear,220,2013-01-16 15:35:00
10:54 AM,33.3,23.4,67,29.95,10.0,WSW,11.5,16.1,N/A,,Clear,240,2013-01-16 15:54:00
11:15 AM,34.2,23.2,64,29.93,10.0,WSW,11.5,-,N/A,,Clear,240,2013-01-16 16:15:00
11:34 AM,35.1,21.9,59,29.92,10.0,WSW,11.5,17.3,N/A,,Clear,240,2013-01-16 16:34:00
11:54 AM,36.3,22.6,58,29.90,10.0,WSW,11.5,16.1,N/A,,Clear,240,2013-01-16 16:54:00
12:15 PM,36.9,18.5,47,29.88,10.0,SW,12.7,-,N/A,,Clear,230,2013-01-16 17:15:00
12:34 PM,37.6,14.4,39,29.86,10.0,WSW,11.5,17.3,N/A,,Clear,240,2013-01-16 17:34:00
12:54 PM,38.7,14.7,38,29.85,10.0,SSW,13.8,18.4,N/A,,Clear,210,2013-01-16 17:54:00
1:14 PM,39.2,13.3,35,29.84,10.0,SSW,9.2,-,N/A,,Clear,210,2013-01-16 18:14:00
1:34 PM,39.6,12.4,33,29.83,10.0,WSW,15.0,20.7,N/A,,Clear,240,2013-01-16 18:34:00
1:55 PM,39.6,14.0,35,29.83,10.0,WSW,11.5,20.7,N/A,,Clear,240,2013-01-16 18:55:00
2:14 PM,40.3,11.8,31,29.82,10.0,SW,12.7,23.0,N/A,,Clear,230,2013-01-16 19:14:00
2:34 PM,41.0,11.1,29,29.81,10.0,SW,16.1,20.7,N/A,,Clear,230,2013-01-16 19:34:00
2:55 PM,41.9,10.8,28,29.81,10.0,SW,16.1,25.3,N/A,,Clear,230,2013-01-16 19:55:00
3:14 PM,41.7,10.8,28,29.81,10.0,WSW,15.0,25.3,N/A,,Clear,240,2013-01-16 20:14:00
3:35 PM,42.1,11.3,29,29.82,10.0,SW,17.3,26.5,N/A,,Clear,220,2013-01-16 20:35:00
3:55 PM,41.7,11.1,29,29.81,10.0,WSW,16.1,25.3,N/A,,Clear,240,2013-01-16 20:55:00
4:14 PM,41.4,11.3,29,29.81,10.0,WSW,12.7,26.5,N/A,,Clear,240,2013-01-16 21:14:00
4:35 PM,40.6,11.8,31,29.82,10.0,WSW,11.5,24.2,N/A,,Mostly Cloudy,240,2013-01-16 21:35:00
4:54 PM,40.3,11.8,31,29.82,10.0,WSW,15.0,27.6,N/A,,Overcast,240,2013-01-16 21:54:00
5:14 PM,40.1,12.2,32,29.83,10.0,WSW,17.3,25.3,N/A,,Overcast,240,2013-01-16 22:14:00
5:35 PM,40.1,12.9,33,29.84,10.0,WSW,16.1,24.2,N/A,,Overcast,240,2013-01-16 22:35:00
5:54 PM,39.7,13.3,34,29.84,10.0,SW,9.2,16.1,N/A,,Overcast,230,2013-01-16 22:54:00
6:14 PM,39.4,13.3,34,29.84,10.0,SW,15.0,26.5,N/A,,Overcast,230,2013-01-16 23:14:00
6:54 PM,39.2,15.8,39,29.86,10.0,WSW,12.7,25.3,N/A,,Overcast,250,2013-01-16 23:54:00
7:15 PM,38.7,16.5,41,29.87,10.0,WSW,11.5,20.7,N/A,,Overcast,240,2013-01-17 00:15:00
7:34 PM,38.5,17.4,43,29.88,10.0,WSW,13.8,24.2,N/A,,Overcast,250,2013-01-17 00:34:00
7:54 PM,38.3,17.8,44,29.88,10.0,WSW,15.0,23.0,N/A,,Overcast,250,2013-01-17 00:54:00
8:15 PM,38.3,18.5,45,29.88,10.0,WSW,11.5,21.9,N/A,,Overcast,250,2013-01-17 01:15:00
8:34 PM,37.9,19.6,48,29.89,10.0,WSW,12.7,16.1,N/A,,Overcast,250,2013-01-17 01:34:00
8:55 PM,37.8,20.1,49,29.89,10.0,West,11.5,-,N/A,,Overcast,260,2013-01-17 01:55:00
9:14 PM,37.8,21.2,51,29.91,10.0,West,12.7,19.6,N/A,,Overcast,260,2013-01-17 02:14:00
9:34 PM,37.6,22.3,54,29.91,10.0,West,15.0,19.6,N/A,,Overcast,260,2013-01-17 02:34:00
9:55 PM,37.4,23.0,56,29.92,10.0,WSW,10.4,18.4,N/A,,Overcast,250,2013-01-17 02:55:00
10:14 PM,37.4,23.7,58,29.92,10.0,WSW,11.5,20.7,N/A,,Overcast,250,2013-01-17 03:14:00
10:34 PM,37.4,24.8,60,29.92,10.0,West,12.7,19.6,N/A,,Overcast,260,2013-01-17 03:34:00
10:55 PM,37.4,25.7,63,29.93,10.0,WSW,8.1,18.4,N/A,,Overcast,250,2013-01-17 03:55:00
11:14 PM,37.6,26.6,65,29.93,10.0,West,12.7,18.4,N/A,,Overcast,260,2013-01-17 04:14:00
11:34 PM,37.6,27.5,67,29.94,10.0,West,13.8,-,N/A,,Overcast,260,2013-01-17 04:34:00
11:55 PM,37.8,28.0,68,29.95,10.0,West,9.2,18.4,N/A,,Overcast,270,2013-01-17 04:55:00